Location: *
(49.6619°S, 177.4603°W)
Time: 05:32:50
(UTC+00:00)

Meteor 1-5 Rocket - Pass Details

Date: 31 January 2023
Orbit: 789 x 915 km, 81.2° (Epoch: 01 April)

Event Time Altitude Azimuth Distance (km) Brightness Sun altitude
Rises 10:50:46 0° 195° (SSW) 3,507 9.0 -21.1°
Reaches altitude 10° 10:53:13 10° 197° (SSW) 2,579 7.9 -21.2°
Maximum altitude 10:59:04 68° 277° (W) 981 4.5 -21.5°
Enters shadow 11:01:20 39° 347° (NNW) 1,353 4.8 -21.6°
